Weather History for KCSM - April, 2013

Change the Weather History Date:

Monday, April 29, 2013

  Actual Average Record
Temperature  
Mean Temperature 74 °F -  
Max Temperature 89 °F 73 °F 89 °F (2013)
Min Temperature 59 °F 49 °F 41 °F (1998)
Cooling Degree Days 9    
Growing Degree Days 24 (Base 50)    
Moisture  
Dew Point 49 °F    
Average Humidity 50    
Maximum Humidity 90    
Minimum Humidity 18    
Precipitation  
Precipitation 0.00 in - - ()
Sea Level Pressure  
Sea Level Pressure 29.72 in    
Wind  
Wind Speed 16 mph (South)    
Max Wind Speed 28 mph    
Max Gust Speed 44 mph    
Visibility 10 miles    
Events      
Averages and records for this station are not official NWS values.
T = Trace of Precipitation, MM = Missing Value Source: NWS Daily Summary

Daily Weather History Graph

Daily Weather History Graph

Search for Another Location

Airport or City:

Trip Planner

Search our weather history database for the weather conditions in past years. The results will help you decide how hot, cold, wet, or windy it might be!

Date:

Astronomy

Apr. 29, 2013 Rise Set
Actual Time 6:47 AM CDT 8:21 PM CDT
Civil Twilight 6:20 AM CDT 8:48 PM CDT
Nautical Twilight 5:47 AM CDT 9:21 PM CDT
Astronomical Twilight 5:13 AM CDT 9:55 PM CDT
Moon No Moon Rise 10:13 AM CDT (4/29)
Length of Visible Light 14h 28m
Length of Day
13h 34m
Waning Gibbous, 80% of the Moon is Illuminated
Apr 29
Waning Gibbous
May 2
Last Quarter
May 9
New
May 17
First Quarter
May 24
Full

Hourly Weather History & Observations

Time (CDT) Temp. Dew Point Humidity Pressure Visibility Wind Dir Wind Speed Gust Speed Precip Events Conditions
12:53 AM 62.1 °F 57.0 °F 84% 29.80 in 10.0 mi SSE 9.2 mph - N/A   Clear
1:53 AM 64.0 °F 60.1 °F 87% 29.80 in 10.0 mi South 15.0 mph - N/A   Clear
2:53 AM 62.1 °F 59.0 °F 90% 29.78 in 10.0 mi South 13.8 mph - N/A   Clear
3:53 AM 62.1 °F 59.0 °F 90% 29.76 in 10.0 mi South 16.1 mph - N/A   Clear
4:53 AM 61.0 °F 57.0 °F 87% 29.76 in 10.0 mi South 17.3 mph - N/A   Clear
5:53 AM 60.1 °F 55.0 °F 83% 29.76 in 10.0 mi South 15.0 mph - N/A   Clear
6:53 AM 59.0 °F 52.0 °F 78% 29.77 in 10.0 mi SSW 13.8 mph - N/A   Clear
7:53 AM 60.1 °F 53.1 °F 78% 29.79 in 10.0 mi SSW 15.0 mph - N/A   Clear
8:53 AM 64.9 °F 53.1 °F 65% 29.79 in 10.0 mi SSW 12.7 mph - N/A   Clear
9:53 AM 70.0 °F 52.0 °F 53% 29.78 in 10.0 mi SSW 16.1 mph - N/A   Clear
10:53 AM 75.0 °F 51.1 °F 43% 29.77 in 10.0 mi SSW 15.0 mph 20.7 mph N/A   Clear
11:53 AM 81.0 °F 48.9 °F 33% 29.77 in 10.0 mi SSW 18.4 mph 24.2 mph N/A   Clear
12:53 PM 84.0 °F 48.0 °F 28% 29.75 in 10.0 mi South 18.4 mph 27.6 mph N/A   Clear
1:53 PM 86.0 °F 46.9 °F 26% 29.71 in 10.0 mi South 19.6 mph 25.3 mph N/A   Clear
2:53 PM 89.1 °F 43.0 °F 20% 29.68 in 10.0 mi South 25.3 mph 33.4 mph N/A   Clear
3:53 PM 89.1 °F 41.0 °F 19% 29.66 in 10.0 mi South 23.0 mph 35.7 mph N/A   Clear
4:53 PM 88.0 °F 39.0 °F 18% 29.64 in 10.0 mi South 27.6 mph 34.5 mph N/A   Clear
5:53 PM 86.0 °F 37.9 °F 18% 29.63 in 10.0 mi South 21.9 mph 34.5 mph N/A   Clear
6:53 PM 82.9 °F 41.0 °F 23% 29.63 in 10.0 mi South 20.7 mph 31.1 mph N/A   Clear
7:53 PM 79.0 °F 42.1 °F 27% 29.63 in 10.0 mi SSE 21.9 mph 27.6 mph N/A   Clear
8:53 PM 75.0 °F 43.0 °F 32% 29.64 in 10.0 mi SSE 23.0 mph - N/A   Clear
9:53 PM 72.0 °F 44.1 °F 37% 29.65 in 10.0 mi SSE 21.9 mph 36.8 mph N/A   Clear
10:53 PM 72.0 °F 48.0 °F 43% 29.66 in 10.0 mi SSE 26.5 mph 43.7 mph N/A   Clear
11:53 PM 70.0 °F 48.9 °F 47% 29.66 in 10.0 mi South 24.2 mph 35.7 mph N/A   Clear